Location: Archemont
(49.1579°N, 1.7598°E)
Time: 07:47:59
(UTC+00:00)

deb r/b Ablestar - Visible Passes

Search period start: 22 July 2024 00:00
Search period end: 01 August 2024 00:00
Orbit: 671 x 780 km, 66.5° (Epoch: 22 July)

Date Brightness Start Highest point End Pass type
(mag) Time Alt. Az. Time Alt. Az. Time Alt. Az.
22 Jul ? 01:27:16 10° NNW 01:32:29 66° NE 01:37:29 10° SE visible
22 Jul ? 03:10:08 10° WNW 03:14:03 22° WSW 03:17:52 10° SSW visible
22 Jul ? 21:11:49 10° NNW 21:13:56 12° N 21:16:04 10° NNE visible
22 Jul ? 22:55:18 10° NNW 22:58:18 15° NNE 23:01:16 10° NE visible
23 Jul ? 00:36:54 10° NNW 00:41:50 40° NE 00:46:35 10° ESE visible
23 Jul ? 02:19:05 10° NW 02:23:55 41° WSW 02:28:13 12° S visible
23 Jul ? 20:19:51 10° NW 20:22:41 14° NNW 20:25:29 10° NNE visible
23 Jul ? 22:04:49 10° NNW 22:07:04 13° N 22:09:18 10° NE visible
23 Jul ? 23:46:36 10° NNW 23:50:59 26° NE 23:55:15 10° E visible
24 Jul ? 01:28:25 10° NW 01:33:37 77° WSW 01:37:24 18° SSE visible
24 Jul ? 03:12:37 10° W 03:14:44 13° WSW 03:16:39 10° SW visible
24 Jul ? 21:13:53 10° NNW 21:15:45 12° N 21:17:38 10° NNE visible
24 Jul ? 22:56:18 10° NNW 22:59:58 19° NNE 23:03:34 10° ENE visible
25 Jul ? 00:37:55 10° NNW 00:43:06 61° NE 00:46:58 17° SE visible
25 Jul ? 02:20:39 10° WNW 02:24:44 24° WSW 02:26:14 21° SW visible
25 Jul ? 20:22:15 10° NNW 20:24:27 12° N 20:26:37 10° NNE visible
25 Jul ? 22:05:57 10° NNW 22:08:49 14° NNE 22:11:39 10° NE visible
25 Jul ? 23:47:33 10° NNW 23:52:24 37° NE 23:56:47 12° ESE visible
26 Jul ? 01:29:39 10° NW 01:34:35 45° WSW 01:36:03 35° SSW visible
26 Jul ? 21:15:24 10° NNW 21:17:33 12° N 21:19:40 10° NNE visible
26 Jul ? 22:57:14 10° NNW 23:01:31 25° NNE 23:05:41 10° E visible
27 Jul ? 00:39:00 10° NW 00:44:13 84° SW 00:46:03 40° SSE visible
27 Jul ? 02:22:52 10° WNW 02:25:20 14° WSW 02:25:20 14° WSW visible
27 Jul ? 20:24:21 10° NNW 20:26:13 12° N 20:28:04 10° NNE visible
27 Jul ? 22:06:55 10° NNW 22:10:28 18° NNE 22:13:56 10° ENE visible
27 Jul ? 23:48:32 10° NNW 23:53:40 56° NE 23:56:09 28° ESE visible
28 Jul ? 01:31:08 10° NW 01:35:23 27° WSW 01:35:27 27° WSW visible
28 Jul ? 21:16:32 10° NNW 21:19:16 14° NNE 21:21:58 10° NE visible
28 Jul ? 22:58:09 10° NNW 23:02:55 34° NE 23:06:22 16° E visible
29 Jul ? 00:40:12 10° NW 00:45:10 50° WSW 00:45:40 48° SW visible
29 Jul ? 20:25:56 10° NNW 20:27:59 12° N 20:30:00 10° NNE visible
29 Jul ? 22:07:49 10° NNW 22:12:00 23° NNE 22:16:03 10° E visible
29 Jul ? 23:49:33 10° NW 23:54:46 90° NNE 23:55:57 54° SE visible
30 Jul ? 01:33:08 10° WNW 01:35:16 15° W 01:35:16 15° W visible
30 Jul ? 21:17:30 10° NNW 21:20:54 17° NNE 21:24:15 10° ENE visible
30 Jul ? 22:59:05 10° NNW 23:04:10 52° NE 23:06:19 31° ESE visible
31 Jul ? 00:41:35 10° NW 00:45:38 29° WSW 00:45:38 29° WSW visible
31 Jul ? 20:27:04 10° NNW 20:29:41 14° NNE 20:32:14 10° NE visible
31 Jul ? 22:08:42 10° NNW 22:13:23 32° NE 22:16:44 16° E visible
